Погода в Отрадном

Россия / Санкт-Петербург и Ленинградская область     59°46′26″N   30°47′40″E
темп.,
°C
ветер,
м/с
пор.,
м/с
влажн.,
%
обл.,
%
осадки,
мм/ч
давл.,
гПа
погр.,
м
25 июля, вс
вс2500:00+11з227169 0.0 101722
03:00+13юз2456100 0.0 101798
06:00+14ююз3755100 0.0 1017194
09:00+17зюз484762 0.0 1017484
12:00+22зюз464328 0.0 10181653
15:00+23зсз464369 0.0 10181816
18:00+23сз35425 0.0 10181327
21:00+17сз11633 0.0 101911
26 июля, пн
пн2600:00+14з117452 0.0 102010
03:00+16юз2264100 0.0 102058
06:00+17юз246095 0.0 1020106
09:00+22зюз23453 0.0 1021514
12:00+27з23335 0.0 10202108
15:00+28сз333332 0.0 10202319
18:00+28зсз22335 0.0 10191791
21:00+20сз226110 0.0 102026
27 июля, вт
вт2700:00+17ююз11655 0.0 102111
03:00+16ююз11670 0.0 102111
06:00+17ю11690 0.0 102111
09:00+24ю12460 0.0 1020400
12:00+30ю11315 0.0 10192273
15:00+31ююв212652 0.0 10173168
18:00+28юв2334100 0.0 1016803
21:00+22вюв26542 0.0 101686
28 июля, ср
ср2800:00+19юв226025 0.0 101637
03:00+17юв226971 0.0 101524
06:00+17юв237137 0.0 101372
09:00+25юв24447 0.0 1011442
12:00+29юв353321 0.0 10091816
15:00+29ююв3439100 0.0 10071969
18:00+26юв4548100 0.1 1006964
21:00+20ю2683100 1.5 1006244
29 июля, чт
чт2900:00+17ююз2598100 0.0 1006127
03:00+17ююз2598100 0.0 1004140
06:00+18ююз379651 1.0 1003292
09:00+19юз379098 1.8 1003722
12:00+23зюз4867100 0.5 10021405
15:00+22зюз487777 4.1 10021215
18:00+20зюз510790 4.4 10021049
21:00+19зюз514680 4.8 10021123